| time (UTC) | temp F | wind direction | speed MPH | gust MPH | rain 1hr in | rain 24hr in | rain mn in | humidity % | barometer mb |
| 20260503184516 | 62 | 180 | 3.0 | 7.0 | 0.00 | 0.00 | 0.00 | 42 | 1019.9 |
| 20260503183515 | 61 | 203 | 2.0 | 5.0 | 0.00 | 0.00 | 0.00 | 45 | 1020.1 |
| 20260503182516 | 61 | 225 | 3.0 | 7.0 | 0.00 | 0.00 | 0.00 | 41 | 1020.3 |
| 20260503181515 | 61 | 180 | 3.0 | 7.0 | 0.00 | 0.00 | 0.00 | 42 | 1020.4 |
| 20260503180515 | 60 | 225 | 3.0 | 6.0 | 0.00 | 0.00 | 0.00 | 44 | 1020.6 |
| 20260503175515 | 60 | 203 | 3.0 | 7.0 | 0.00 | 0.00 | 0.00 | 44 | 1020.6 |
| 20260503174516 | 60 | 315 | 3.0 | 7.0 | 0.00 | 0.00 | 0.00 | 39 | 1020.7 |
| 20260503173515 | 60 | 338 | 2.0 | 5.0 | 0.00 | 0.00 | 0.00 | 42 | 1020.8 |
| 20260503172516 | 59 | 225 | 2.0 | 5.0 | 0.00 | 0.00 | 0.00 | 41 | 1020.7 |
| 20260503171536 | 60 | 225 | 2.0 | 7.0 | 0.00 | 0.00 | 0.00 | 47 | 1021.0 |
| 20260503170515 | 59 | 158 | 1.0 | 4.0 | 0.00 | 0.00 | 0.00 | 43 | 1021.2 |
| 20260503150517 | 55 | 135 | 1.0 | 4.0 | 0.00 | 0.00 | 0.00 | 45 | 1022.0 |
| 20260503130517 | 51 | 113 | 1.0 | 2.0 | 0.00 | 0.00 | 0.00 | 62 | 1022.0 |
| 20260503110537 | 35 | 0.0 | 0.0 | 0.00 | 0.00 | 0.00 | 91 | 1020.3 | |
| 20260503081516 | 38 | 0.0 | 2.0 | 0.00 | 0.00 | 0.00 | 88 | 1019.2 | |
| 20260503080516 | 38 | 0.0 | 2.0 | 0.00 | 0.00 | 0.00 | 88 | 1019.0 | |
| 20260503072516 | 39 | 0.0 | 1.0 | 0.00 | 0.00 | 0.00 | 85 | 1018.7 | |
| 20260503071556 | 40 | 0.0 | 2.0 | 0.00 | 0.00 | 0.00 | 85 | 1018.4 | |
| 20260503070536 | 40 | 0.0 | 2.0 | 0.00 | 0.00 | 0.00 | 85 | 1018.6 | |
| 20260503054516 | 42 | 0.0 | 2.0 | 0.00 | 0.00 | 0.00 | 83 | 1018.5 | |
| 20260503053516 | 42 | 0.0 | 0.0 | 0.00 | 0.00 | 0.00 | 83 | 1018.5 | |
| 20260503052516 | 42 | 0.0 | 2.0 | 0.00 | 0.00 | 0.00 | 83 | 1018.5 | |
| 20260503051516 | 42 | 0.0 | 2.0 | 0.00 | 0.00 | 0.00 | 82 | 1018.4 | |
| 20260503050516 | 42 | 0.0 | 2.0 | 0.00 | 0.00 | 0.00 | 82 | 1018.3 | |
| 20260503045516 | 43 | 0.0 | 2.0 | 0.00 | 0.00 | 0.00 | 83 | 1018.1 | |
| 20260503044521 | 43 | 0.0 | 1.0 | 0.00 | 0.00 | 0.00 | 82 | 1018.3 | |
| 20260503043516 | 43 | 0.0 | 2.0 | 0.00 | 0.00 | 0.00 | 82 | 1018.0 | |
| 20260503042516 | 44 | 0.0 | 2.0 | 0.00 | 0.00 | 0.00 | 80 | 1018.2 | |
| 20260503041515 | 44 | 180 | 1.0 | 2.0 | 0.00 | 0.00 | 0.00 | 80 | 1018.3 |
| 20260503040516 | 44 | 0.0 | 1.0 | 0.00 | 0.00 | 0.00 | 80 | 1018.0 | |
| 20260503035537 | 44 | 0.0 | 1.0 | 0.00 | 0.00 | 0.00 | 79 | 1017.9 | |
| 20260503034517 | 44 | 0.0 | 1.0 | 0.00 | 0.00 | 0.00 | 79 | 1017.9 | |
| 20260503033537 | 44 | 0.0 | 2.0 | 0.00 | 0.00 | 0.00 | 80 | 1017.8 | |
| 20260503032517 | 44 | 0.0 | 2.0 | 0.00 | 0.00 | 0.00 | 79 | 1017.9 | |
| 20260503031537 | 44 | 0.0 | 1.0 | 0.00 | 0.00 | 0.00 | 77 | 1017.7 | |
| 20260503030516 | 44 | 0.0 | 0.0 | 0.00 | 0.00 | 0.00 | 78 | 1017.7 | |
| 20260503025516 | 44 | 0.0 | 2.0 | 0.00 | 0.00 | 0.00 | 78 | 1017.7 | |
| 20260503024517 | 44 | 0.0 | 2.0 | 0.00 | 0.00 | 0.00 | 78 | 1017.7 | |
| 20260503023516 | 44 | 0.0 | 2.0 | 0.00 | 0.00 | 0.00 | 76 | 1017.6 | |
| 20260503022516 | 44 | 0.0 | 1.0 | 0.00 | 0.00 | 0.00 | 75 | 1017.4 | |
| 20260503021517 | 44 | 0.0 | 1.0 | 0.00 | 0.00 | 0.00 | 74 | 1017.3 | |
| 20260503020516 | 45 | 0.0 | 0.0 | 0.00 | 0.00 | 0.00 | 74 | 1017.3 | |
| 20260503015516 | 45 | 0.0 | 1.0 | 0.00 | 0.00 | 0.00 | 74 | 1017.1 | |
| 20260503014517 | 46 | 0.0 | 2.0 | 0.00 | 0.00 | 0.00 | 71 | 1017.0 | |
| 20260503013536 | 46 | 0.0 | 2.0 | 0.00 | 0.00 | 0.00 | 70 | 1016.8 | |
| 20260503012526 | 47 | 0.0 | 2.0 | 0.00 | 0.00 | 0.00 | 69 | 1016.8 | |
| 20260503011556 | 48 | 0.0 | 2.0 | 0.00 | 0.00 | 0.00 | 68 | 1016.7 | |
| 20260503010516 | 48 | 315 | 1.0 | 1.0 | 0.00 | 0.00 | 0.00 | 66 | 1016.6 |
| 20260503005516 | 49 | 0.0 | 2.0 | 0.00 | 0.00 | 0.00 | 63 | 1016.3 | |
| 20260503004516 | 50 | 0.0 | 2.0 | 0.00 | 0.00 | 0.00 | 60 | 1016.2 | |
| 20260503003516 | 51 | 23 | 1.0 | 2.0 | 0.00 | 0.00 | 0.00 | 56 | 1016.1 |
| 20260503002516 | 52 | 45 | 1.0 | 3.0 | 0.00 | 0.00 | 0.00 | 58 | 1015.9 |
| 20260503001516 | 52 | 338 | 1.0 | 3.0 | 0.00 | 0.00 | 0.00 | 55 | 1015.8 |
| 20260503000516 | 53 | 315 | 1.0 | 2.0 | 0.00 | 0.00 | 0.00 | 54 | 1015.9 |
| 20260502235516 | 54 | 315 | 2.0 | 3.0 | 0.00 | 0.00 | 0.00 | 51 | 1015.6 |
| 20260502234516 | 54 | 0 | 1.0 | 2.0 | 0.00 | 0.00 | 0.00 | 50 | 1015.5 |
| 20260502233516 | 55 | 315 | 3.0 | 8.0 | 0.00 | 0.00 | 0.00 | 48 | 1015.5 |
| 20260502232516 | 56 | 315 | 5.0 | 8.0 | 0.00 | 0.00 | 0.00 | 46 | 1015.6 |
| 20260502231516 | 57 | 338 | 3.0 | 9.0 | 0.00 | 0.00 | 0.00 | 46 | 1015.7 |
| 20260502230516 | 57 | 315 | 3.0 | 7.0 | 0.00 | 0.00 | 0.00 | 46 | 1015.5 |
| 20260502225516 | 57 | 338 | 4.0 | 8.0 | 0.00 | 0.00 | 0.00 | 46 | 1015.6 |
| 20260502224516 | 57 | 23 | 2.0 | 4.0 | 0.00 | 0.00 | 0.00 | 46 | 1015.5 |
| 20260502223516 | 57 | 315 | 2.0 | 8.0 | 0.00 | 0.00 | 0.00 | 47 | 1015.7 |
| 20260502222516 | 58 | 293 | 5.0 | 12.0 | 0.00 | 0.00 | 0.00 | 43 | 1015.4 |
| 20260502221536 | 58 | 293 | 3.0 | 10.0 | 0.00 | 0.00 | 0.00 | 42 | 1015.2 |
| 20260502220536 | 59 | 315 | 3.0 | 9.0 | 0.00 | 0.00 | 0.00 | 41 | 1014.9 |
| 20260502215516 | 60 | 315 | 5.0 | 11.0 | 0.00 | 0.00 | 0.00 | 40 | 1015.1 |
| 20260502214524 | 60 | 0 | 2.0 | 4.0 | 0.00 | 0.00 | 0.00 | 41 | 1014.8 |
| 20260502213516 | 59 | 338 | 4.0 | 8.0 | 0.00 | 0.00 | 0.00 | 43 | 1015.1 |
| 20260502212516 | 59 | 315 | 3.0 | 8.0 | 0.00 | 0.00 | 0.00 | 42 | 1014.8 |
| 20260502211516 | 59 | 23 | 3.0 | 10.0 | 0.00 | 0.00 | 0.00 | 41 | 1014.8 |
| 20260502210516 | 61 | 315 | 3.0 | 9.0 | 0.00 | 0.00 | 0.00 | 41 | 1014.6 |
| 20260502205516 | 60 | 338 | 5.0 | 10.0 | 0.00 | 0.00 | 0.00 | 39 | 1014.7 |
| 20260502204536 | 60 | 45 | 2.0 | 7.0 | 0.00 | 0.00 | 0.00 | 41 | 1014.6 |
| 20260502203516 | 60 | 338 | 3.0 | 6.0 | 0.00 | 0.00 | 0.00 | 43 | 1014.7 |
| 20260502202516 | 59 | 315 | 4.0 | 10.0 | 0.00 | 0.00 | 0.00 | 40 | 1014.8 |
| 20260502201516 | 61 | 45 | 4.0 | 12.0 | 0.00 | 0.00 | 0.00 | 41 | 1015.0 |
| 20260502200516 | 60 | 315 | 2.0 | 4.0 | 0.00 | 0.00 | 0.00 | 39 | 1014.8 |
| 20260502195517 | 60 | 68 | 3.0 | 9.0 | 0.00 | 0.00 | 0.00 | 38 | 1014.9 |
| 20260502194516 | 60 | 45 | 4.0 | 12.0 | 0.00 | 0.00 | 0.00 | 39 | 1014.9 |
| 20260502193516 | 60 | 23 | 4.0 | 16.0 | 0.00 | 0.00 | 0.00 | 37 | 1015.1 |
| 20260502192516 | 60 | 315 | 5.0 | 10.0 | 0.00 | 0.00 | 0.00 | 42 | 1015.0 |
| 20260502191515 | 60 | 338 | 4.0 | 12.0 | 0.00 | 0.00 | 0.00 | 38 | 1014.8 |
| 20260502190555 | 60 | 180 | 2.0 | 8.0 | 0.00 | 0.00 | 0.00 | 40 | 1015.1 |
| 20260502185515 | 61 | 293 | 5.0 | 12.0 | 0.00 | 0.00 | 0.00 | 36 | 1015.1 |